This is the latest recevied weather packets stored in our database for station/object SQ9RHX-13. If no packets are shown the sender has not sent any weather packets the latest 10 day(s).
| Time | Temp. | Humidity | Pressure | Rain* | Wind** | Luminosity | Snow |
|---|---|---|---|---|---|---|---|
| 1777614903 | 11.67° C | 58% | 1032.3 hPa | 0 mm | - | 169 W/m² | - |
| 1777614604 | 11.11° C | 59% | 1032.3 hPa | 0 mm | - | 158 W/m² | - |
| 1777614304 | 11.11° C | 61% | 1032.4 hPa | 0 mm | - | 147 W/m² | - |
| 1777614006 | 10.56° C | 60% | 1032.4 hPa | 0 mm | - | 140 W/m² | - |
| 1777613703 | 10.56° C | 61% | 1032.2 hPa | 0 mm | - | 130 W/m² | - |
| 1777613403 | 10.56° C | 62% | 1032.2 hPa | 0 mm | - | 120 W/m² | - |
| 1777613105 | 10.56° C | 63% | 1032.3 hPa | 0 mm | - | 110 W/m² | - |
| 1777612802 | 10.56° C | 63% | 1032.3 hPa | 0 mm | - | 103 W/m² | - |
| 1777612503 | 10° C | 65% | 1032.4 hPa | 0 mm | - | 94 W/m² | - |
| 1777612202 | 9.44° C | 65% | 1032.4 hPa | 0 mm | - | 53 W/m² | - |
| 1777611903 | 9.44° C | 65% | 1032.1 hPa | 0 mm | - | 45 W/m² | - |
| 1777611604 | 8.89° C | 66% | 1032.2 hPa | 0 mm | - | 72 W/m² | - |
| 1777611303 | 8.89° C | 67% | 1032.3 hPa | 0 mm | - | 32 W/m² | - |
| 1777611003 | 8.89° C | 68% | 1032.4 hPa | 0 mm | - | 55 W/m² | - |
| 1777610703 | 8.33° C | 68% | 1032.3 hPa | 0 mm | - | 54 W/m² | - |
| 1777610404 | 8.33° C | 70% | 1032.2 hPa | 0 mm | - | 48 W/m² | - |
| 1777610103 | 7.78° C | 71% | 1032.1 hPa | 0 mm | - | 44 W/m² | - |
| 1777609803 | 7.22° C | 72% | 1032.2 hPa | 0 mm | - | 35 W/m² | - |
| 1777609502 | 7.22° C | 74% | 1032.1 hPa | 0 mm | - | 32 W/m² | - |
| 1777609206 | 6.67° C | 74% | 1032 hPa | 0 mm | - | 23 W/m² | - |
| 1777608903 | 6.67° C | 75% | 1032 hPa | 0 mm | - | 20 W/m² | - |
| 1777608603 | 6.67° C | 76% | 1032.1 hPa | 0 mm | - | 19 W/m² | - |
| 1777608305 | 6.11° C | 76% | 1032 hPa | 0 mm | - | 17 W/m² | - |
| 1777608003 | 6.11° C | 77% | 1031.9 hPa | 0 mm | - | 15 W/m² | - |
| 1777607703 | 6.11° C | 77% | 1032 hPa | 0 mm | - | 13 W/m² | - |
* Rain latest hour (hover to see other rain measurements)
** Current wind speed in m/s (hover to see current wind gust speed)